Regional Weather Roundup
Issued by NWS Upton, NY

Current Version | Previous Version | Text Only | Print | Product List | Glossary On
Versions: 1 2 3 4 5 6 7 8 9 10 11 12 13 14 15 16 17 18 19 20 21 22 23 24 25 26 27 28 29 30 31 32 33 34 35 36 37 38 39 40 41 42 43 44 45 46 47 48 49 50
000
ASUS41 KOKX 041508
RWROKX

REGIONAL WEATHER ROUNDUP
NATIONAL WEATHER SERVICE NEW YORK NY
1000 AM EST SUN DEC 04 2016

NOTE: "FAIR" INDICATES FEW OR NO CLOUDS BELOW 12,000 FEET WITH NO
SIGNIFICANT WEATHER AND/OR OBSTRUCTIONS TO VISIBILITY.

NYZ071-072-176-178-NJZ106-104-041600-
NEW YORK CITY METRO AREA

CITY           SKY/WX    TMP DP  RH WIND       PRES   REMARKS
Central Park   SUNNY     41  22  46 MISG      30.25S
Wall St Helipt SUNNY     44  26  49 W5        30.24F
Bronx Bot Gard   N/A     41  23  48 N7        30.25F
LaGuardia APRT PTSUNNY   43  24  47 N13G23    30.23F
Kennedy INTL   MOSUNNY   43  21  41 NW14      30.24F
Breezy Point     N/A     39 N/A N/A NW15G24     N/A  WCI  31
Newark/Liberty PTSUNNY   42  23  46 NW15G23   30.23F
Teterboro      SUNNY     42  22  44 N15G22    30.23F
$$

NYZ177-179-078>081-041600-
LONG ISLAND NEW YORK

CITY           SKY/WX    TMP DP  RH WIND       PRES   REMARKS
Jones Beach      N/A     39 N/A N/A N16         N/A  WCI  30
Matinecock PT    N/A     41 N/A N/A N8          N/A
Farmingdale    SUNNY     41  25  53 N12       30.22F
MacArthur/ISP  MOSUNNY   40  24  53 N9        30.21F WCI  34
Shirley        SUNNY     40  24  53 NW12      30.23S WCI  33
Westhampton    SUNNY     40  22  48 N15G22    30.24R WCI  32
Southampton      N/A     39  27  60 N9        30.19S WCI  33
Bridgehampton  NOT AVBL
East Hampton     N/A     37  19  47 N8G18     30.22R WCI  31
Montauk          N/A     38  20  48 NW9       30.21R WCI  31
$$

NYZ052-065-067-041600-
HUDSON VALLEY

CITY           SKY/WX    TMP DP  RH WIND       PRES   REMARKS
White Plains   MOSUNNY   39  23  52 NW13      30.21F WCI  31
Newburgh       NOT AVBL
Montgomery     SUNNY     39  24  55 NE6       30.23R WCI  35
Poughkeepsie   SUNNY     36  23  59 NE6       30.25R WCI  31
Albany         CLOUDY    32  20  61 NW9       30.27R WCI  24
$$

NJZ001-105-106-008-010-013-015-019>022-104-041600-
NEW JERSEY

CITY           SKY/WX    TMP DP  RH WIND       PRES   REMARKS
Newark/Liberty PTSUNNY   42  23  46 NW15G23   30.23F
Teterboro      SUNNY     42  22  44 N15G22    30.23F
Caldwell       SUNNY     41  23  48 NW13      30.24S
Somerville     SUNNY     43  23  45 N8        30.23S
Linden           N/A     42  24  48 N10G18    30.24F
Sussex         SUNNY     40  24  53 VRB7      30.23S
Andover          N/A     40  24  53 N9        30.22F WCI  34
Trenton        MOSUNNY   45  25  45 N8        30.24S
Millville      MOSUNNY   45  28  51 N8        30.26S
Atlantic City  CLOUDY    44  24  45 N14       30.25F
Wrightstown    NOT AVBL
Toms River     SUNNY     43  26  51 NW10G17   30.24F
Belmar         SUNNY    N/A N/A N/A NW10      30.24S
$$

PAZ047>061-062-071-041600-
EASTERN PENNSYLVANIA

CITY           SKY/WX    TMP DP  RH WIND       PRES   REMARKS
Philadelphia   PTSUNNY   45  25  45 NW12      30.26S
Allentown      MOSUNNY   44  25  47 NW10      30.24S
Scranton       MOSUNNY   39  24  55 N10       30.23S WCI  32
$$

CTZ002-004>006-009-010-012-RIZ004-006-007-MAZ004-011-015-041600-
SOUTHERN NEW ENGLAND
 IN CT

CITY           SKY/WX    TMP DP  RH WIND       PRES   REMARKS
Bradley INTL   MOSUNNY   38  19  46 N9        30.22R WCI  31
Hartford       SUNNY     37  20  50 N14       30.22S WCI  28
Danbury        SUNNY     37  21  52 N9        30.23R WCI  30
Wtrbury/Oxford MOSUNNY   36  18  48 MISG      30.21R
Bridgeport     SUNNY     41  22  46 N12       30.23S
Meriden        SUNNY     39  19  44 N12G22    30.22S WCI  32
New Haven      SUNNY     39  21  48 N9        30.22S WCI  33
Chester          N/A     36  19  51 NW14      30.19S WCI  27
Groton         SUNNY     41  21  44 N15G23    30.20R
Wilimantic     MOSUNNY   39  21  48 N12G21    30.21R WCI  32

 IN RI

CITY           SKY/WX    TMP DP  RH WIND       PRES   REMARKS
Providence     PTSUNNY   37  20  50 NW15      30.19S WCI  28
Block Island   PTSUNNY   38  23  55 N10         N/A  WCI  31
Westerly       PTSUNNY   40  20  44 NW7       30.21R
 IN MA

CITY           SKY/WX    TMP DP  RH WIND       PRES   REMARKS
Boston         MOSUNNY   36  20  52 NW14G22   30.19R WCI  27
Worcester      CLOUDY    31  18  58 NW13      30.16R WCI  21
Westfield      MOSUNNY   36  19  50 NW16      30.21R WCI  26
Provincetown   CLOUDY    37  25  61 NW15G21   30.17R WCI  28
Nantucket      SUNNY     40  26  57 NW16G23   30.15R WCI  31
$$

ANZ330-335-338-340-345-350-353-355-041600-
COASTAL MARINE OBSERVATIONS


STATION/POSITION TIME  SKY/WX   TEMP    WIND        PRES    VSBY  WAVE
                                AIR SEA DIR/SP/G                  HT/PER
                 (UTC)          (F)     (DEG/KT/KT) (MB)    (MI)  (FT/S)
NY HARB ENTRANCE 1450            42 53  330/ 16/ 19 1023.2          3/ 4
20 S FIRE ISLAND 1350            41 53  340/ 16/ 19 1023.0          3/ 4
GREAT SOUTH BAY  1430            39 43                N/A
23 SSW MONTAUK P 1350            38 55  310/ 14/ 17 1022.8          3/ 4
15 E BARNEGAT LI 1430               54                N/A           4/ 5
HUDSON CANYON    1350            45 58              1022.5          5/ 6
KINGS POINT      1442            40 48              1023.5
EXECUTION ROCKS  1445            42     340/ 14/ 17   N/A
CENTRAL LI SOUND 1400            38 51  350/ 16/ 23   N/A           1/ 3
EASTERN LI SOUND NOT AVBL
ROBBINS REEF     1442            40     330/ 12/ 15 1023.9
$$


>>>>>>>>>>>>>>>>>>>>>>>>>>>> KEY <<<<<<<<<<<<<<<<<<<<<<<<<<<
>                                                          <
>     SKY/WX - Sky Condition/Present Weather               <
>     TMP    - Temperature in Fahrenheit                   <
>     DP     - Dew Point in Fahrenheit                     <
>     RH     - Relative Humidity in Percent                <
>     WIND   - Direction (from) and Speed in MPH           <
>     PRES   - Mean Sea Level Pressure (inches of Hg)      <
>     WCI    - Wind Chill Index                            <
>     VSB    - VISIBILITY IN MILES                         <
>     HX     - HEAT INDEX                                  <
>     TC     - TEMPERATURE IN CELSIUS                      <
>     VRB    - VARIABLE WIND DIRECTION                     <
>                                                          <
>>>>>>>>>>>>>>>>>>>>>>>>>>>> KEY <<<<<<<<<<<<<<<<<<<<<<<<<<<



USA.gov is the U.S. government's official web portal to all federal, state and local government web resources and services.